TimeCDT,TemperatureF,Dew PointF,Humidity,Sea Level PressureIn,VisibilityMPH,Wind Direction,Wind SpeedMPH,Gust SpeedMPH,PrecipitationIn,Events,Conditions,WindDirDegrees,DateUTC
12:15 AM,45.0,27.5,50,30.06,10.0,ENE,9.2,-,N/A,,Clear,70,2013-03-28 05:15:00
12:35 AM,43.7,27.5,53,30.06,10.0,ENE,9.2,-,N/A,,Clear,70,2013-03-28 05:35:00
12:55 AM,43.2,27.9,55,30.06,10.0,ENE,10.4,-,N/A,,Clear,70,2013-03-28 05:55:00
1:15 AM,42.8,28.0,56,30.05,10.0,ENE,11.5,-,N/A,,Clear,70,2013-03-28 06:15:00
1:35 AM,43.7,28.4,55,30.05,10.0,ENE,10.4,-,N/A,,Clear,70,2013-03-28 06:35:00
1:55 AM,42.6,28.4,57,30.05,10.0,ENE,9.2,-,N/A,,Clear,70,2013-03-28 06:55:00
2:15 AM,40.3,28.4,63,30.05,10.0,ENE,6.9,-,N/A,,Clear,70,2013-03-28 07:15:00
2:35 AM,39.7,28.2,63,30.05,10.0,East,8.1,-,N/A,,Clear,80,2013-03-28 07:35:00
2:55 AM,39.2,28.0,64,30.03,10.0,ENE,8.1,-,N/A,,Clear,70,2013-03-28 07:55:00
3:15 AM,40.1,28.4,63,30.04,10.0,NE,10.4,-,N/A,,Clear,50,2013-03-28 08:15:00
3:35 AM,39.9,28.8,64,30.03,10.0,ENE,9.2,-,N/A,,Clear,60,2013-03-28 08:35:00
3:55 AM,38.7,28.2,66,30.03,10.0,East,8.1,-,N/A,,Clear,80,2013-03-28 08:55:00
4:15 AM,37.9,28.4,69,30.02,10.0,East,8.1,-,N/A,,Clear,80,2013-03-28 09:15:00
4:35 AM,37.6,28.4,69,30.03,10.0,ENE,4.6,-,N/A,,Clear,70,2013-03-28 09:35:00
4:55 AM,37.6,28.9,71,30.03,10.0,NNE,5.8,-,N/A,,Clear,30,2013-03-28 09:55:00
5:15 AM,37.2,28.0,69,30.04,10.0,NNE,5.8,-,N/A,,Clear,30,2013-03-28 10:15:00
5:35 AM,36.9,27.9,70,30.03,10.0,NE,4.6,-,N/A,,Clear,40,2013-03-28 10:35:00
5:55 AM,36.5,28.2,72,30.03,10.0,NNE,4.6,-,N/A,,Clear,30,2013-03-28 10:55:00
6:15 AM,35.8,28.4,75,30.03,10.0,NNE,5.8,-,N/A,,Clear,20,2013-03-28 11:15:00
6:35 AM,35.6,29.1,77,30.03,10.0,NNE,6.9,-,N/A,,Clear,30,2013-03-28 11:35:00
6:55 AM,35.2,29.1,78,30.04,10.0,NNE,8.1,-,N/A,,Clear,30,2013-03-28 11:55:00
7:15 AM,34.9,29.3,80,30.05,10.0,NE,8.1,-,N/A,,Clear,40,2013-03-28 12:15:00
7:35 AM,34.5,29.3,81,30.05,10.0,NE,6.9,-,N/A,,Clear,40,2013-03-28 12:35:00
7:55 AM,35.1,29.8,81,30.06,10.0,NE,4.6,-,N/A,,Clear,40,2013-03-28 12:55:00
8:15 AM,37.9,32.0,79,30.07,10.0,NE,3.5,-,N/A,,Clear,40,2013-03-28 13:15:00
8:35 AM,39.2,32.0,75,30.08,10.0,WNW,6.9,-,N/A,,Clear,300,2013-03-28 13:35:00
8:55 AM,38.3,31.1,75,30.09,10.0,WNW,5.8,-,N/A,,Clear,300,2013-03-28 13:55:00
9:15 AM,40.5,31.8,71,30.10,10.0,WNW,5.8,-,N/A,,Clear,290,2013-03-28 14:15:00
9:35 AM,42.1,32.0,67,30.09,10.0,Calm,Calm,-,N/A,,Clear,0,2013-03-28 14:35:00
9:55 AM,43.7,33.1,66,30.08,10.0,NNW,3.5,-,N/A,,Clear,340,2013-03-28 14:55:00
10:15 AM,46.6,34.2,62,30.10,10.0,NNW,5.8,-,N/A,,Clear,330,2013-03-28 15:15:00
10:35 AM,47.1,33.6,59,30.10,10.0,NNW,6.9,-,N/A,,Clear,340,2013-03-28 15:35:00
10:55 AM,47.3,33.8,59,30.11,10.0,North,3.5,-,N/A,,Clear,350,2013-03-28 15:55:00
11:15 AM,48.2,33.3,56,30.11,10.0,NW,3.5,-,N/A,,Clear,320,2013-03-28 16:15:00
11:35 AM,49.1,33.4,55,30.11,10.0,North,4.6,-,N/A,,Clear,350,2013-03-28 16:35:00
12:15 PM,54.0,33.6,46,30.10,10.0,NNE,5.8,-,N/A,,Clear,20,2013-03-28 17:15:00
12:35 PM,55.8,34.3,44,30.10,10.0,North,4.6,-,N/A,,Clear,10,2013-03-28 17:35:00
12:55 PM,55.9,34.5,45,30.10,10.0,Calm,Calm,-,N/A,,Clear,0,2013-03-28 17:55:00
1:15 PM,58.6,34.7,41,30.09,10.0,NW,4.6,-,N/A,,Clear,320,2013-03-28 18:15:00
1:35 PM,60.8,34.7,38,30.08,10.0,South,3.5,-,N/A,,Clear,180,2013-03-28 18:35:00
1:55 PM,60.6,34.2,37,30.07,10.0,Calm,Calm,-,N/A,,Clear,0,2013-03-28 18:55:00
2:15 PM,62.2,34.3,35,30.07,10.0,SSW,3.5,-,N/A,,Clear,210,2013-03-28 19:15:00
2:35 PM,63.7,34.2,33,30.07,10.0,Calm,Calm,-,N/A,,Clear,0,2013-03-28 19:35:00
2:55 PM,64.6,34.5,33,30.06,10.0,South,5.8,-,N/A,,Clear,170,2013-03-28 19:55:00
3:15 PM,66.4,34.3,31,30.06,10.0,Calm,Calm,-,N/A,,Clear,0,2013-03-28 20:15:00
3:35 PM,68.2,34.3,29,30.05,10.0,SSE,4.6,-,N/A,,Clear,150,2013-03-28 20:35:00
3:55 PM,68.2,34.0,28,30.04,10.0,WSW,5.8,-,N/A,,Clear,250,2013-03-28 20:55:00
4:15 PM,68.5,33.6,28,30.03,10.0,West,3.5,-,N/A,,Clear,270,2013-03-28 21:15:00
4:35 PM,68.5,33.1,27,30.03,10.0,West,5.8,-,N/A,,Clear,280,2013-03-28 21:35:00
4:55 PM,69.3,32.9,26,30.03,10.0,South,3.5,-,N/A,,Clear,170,2013-03-28 21:55:00
5:15 PM,69.8,32.9,26,30.03,10.0,South,4.6,-,N/A,,Clear,190,2013-03-28 22:15:00
5:35 PM,69.6,32.5,25,30.03,10.0,Calm,Calm,-,N/A,,Clear,0,2013-03-28 22:35:00
5:55 PM,69.6,32.0,25,30.03,10.0,SW,5.8,-,N/A,,Clear,220,2013-03-28 22:55:00
6:15 PM,68.5,32.5,26,30.03,10.0,Calm,Calm,-,N/A,,Clear,0,2013-03-28 23:15:00
6:35 PM,69.3,32.7,26,30.03,10.0,West,5.8,-,N/A,,Clear,260,2013-03-28 23:35:00
6:55 PM,68.9,32.4,26,30.03,10.0,Calm,Calm,-,N/A,,Clear,0,2013-03-28 23:55:00
7:15 PM,68.5,32.2,26,30.04,10.0,West,3.5,-,N/A,,Clear,260,2013-03-29 00:15:00
7:35 PM,66.7,32.2,28,30.04,10.0,Calm,Calm,-,N/A,,Clear,0,2013-03-29 00:35:00
7:55 PM,64.6,32.2,30,30.05,10.0,Calm,Calm,-,N/A,,Clear,0,2013-03-29 00:55:00
8:15 PM,62.6,32.4,32,30.05,10.0,NNE,3.5,-,N/A,,Clear,20,2013-03-29 01:15:00
8:35 PM,57.6,32.2,38,30.05,10.0,NE,5.8,-,N/A,,Clear,50,2013-03-29 01:35:00
8:55 PM,55.9,33.3,42,30.05,10.0,ENE,5.8,-,N/A,,Clear,70,2013-03-29 01:55:00
9:15 PM,54.1,32.4,44,30.06,10.0,ENE,6.9,-,N/A,,Clear,70,2013-03-29 02:15:00
9:35 PM,52.0,32.2,47,30.06,10.0,East,8.1,-,N/A,,Clear,80,2013-03-29 02:35:00
9:55 PM,50.9,32.9,50,30.07,10.0,ENE,6.9,-,N/A,,Clear,70,2013-03-29 02:55:00
10:15 PM,50.2,34.0,54,30.07,10.0,East,5.8,-,N/A,,Clear,80,2013-03-29 03:15:00
10:35 PM,52.2,35.4,53,30.07,10.0,East,9.2,-,N/A,,Clear,100,2013-03-29 03:35:00
10:55 PM,51.3,35.6,55,30.07,10.0,East,10.4,-,N/A,,Clear,90,2013-03-29 03:55:00
11:15 PM,50.9,35.8,56,30.07,10.0,East,9.2,-,N/A,,Clear,100,2013-03-29 04:15:00
11:35 PM,50.0,36.5,60,30.07,10.0,East,9.2,-,N/A,,Clear,100,2013-03-29 04:35:00
11:55 PM,51.4,38.3,61,30.07,10.0,ESE,9.2,-,N/A,,Clear,110,2013-03-29 04:55:00